Вернуться в каталог

COSMOS 2605

АктивенВоенныеPO
NORAD 67679·PAYLOAD·🇷🇺 Russia

Запущен Feb 5, 2026 с Plesetsk Cosmodrome

Loading…

Ближайшие Пролёты (ближайшие 24 часа)

TLE

СвежийSource: Space-Track

Эпоха: Sep 14, 2026, 14:19 UTC

1 67679U 26023F   26257.59656094  .00008508  00000-0  32277-3 0  9999
2 67679  96.6125 311.4028 0020551 163.9272 196.2625 15.26855895 33638

Отслеживайте COSMOS 2605 в реальном времени с AllMySat

Download on the App Store